Location: Newark
(25.0000°N, 73.5000°E)
Time: 03:57:42
(UTC+00:00)

Altair - Pass Details

Date: 01 March 2021
Orbit: 1501 x 1683 km, 47.2° (Epoch: 12 April)

Event Time Altitude Azimuth Distance (km) Brightness Sun altitude
Rises 20:01:02 0° 317° (NW) 4,757 - -69.5°
Reaches altitude 10° 20:04:19 10° 324° (NW) 3,798 - -69.1°
Maximum altitude 20:13:29 44° 34° (NE) 2,134 - -67.9°
Drops below altitude 10° 20:22:54 10° 104° (ESE) 3,914 - -66.5°
Sets 20:26:19 0° 111° (ESE) 4,914 - -65.9°
